LPMALPPS

Guest
Details From LPMA - Madeira
To LPPS - Porto Santo
Flight Number -
Tags generated
Created
Modified
Stats Distance 33 nm / 61 km
Max Altitude 200 ft / 61 m
Waypoints 3
Social Downloads 0
Likes 0
Share VATSIM

Download

Looking for another format? Having issues loading an existing format? Contact us
Advertisement - Login to hide

Notes

Basic altitude profile: - Ascent Rate: 2500ft/min - Ascent Speed: 250kts - Cruise Altitude: 35000ft - Cruise Speed: 420kts - Descent Rate: 1500ft/min - Descent Speed: 250kts Options: - Use NATs: no - Use PACOTS: no - Use low airways: yes - Use high airways: no

Route

LPMA SNT LPPS

ID Type Via Altitude Latitude Longitude Leg Dist Tot Dist Heading (true) Name
O LPMA APT - 0 ft / 0 m 32.69770˚ -16.77445˚ - 0 nm - Madeira
SNT VOR - 200 ft / 61 m 33.09028˚ -16.35056˚ 31 nm 31 nm 42° / 42° PORTO SANTO VOR-DME
O LPPS APT - 0 ft / 0 m 33.07341˚ -16.34995˚ 1 nm 32 nm 178° / 178° Porto Santo

Altitude Profile

Advertisement - Login to hide

LPMA

Details ICAO LPMA (FNC)
Name Madeira
Region Portugal
Timezone Atlantic/Madeira (UTC+1.0)
Stats Elevation 192 ft / 59 m (AMSL)
Location 32.697704° -16.774449°
Runways 1
Magnetic Variation 4.928° W

METAR

LPMA 221800Z 35011KT 310V020 9999 SCT015 SCT033 18/09 Q1016

Decode

TAF

TAF LPMA 221700Z 2218/2318 35012KT 9999 SCT015 SCT030 TEMPO 2218/2303 VRB05KT BECMG 2303/2306 VRB05KT

Decode

Departure Runways

ID Width Length Bearing (true) Bearing (mag) Surface Threshold Offset Overrun Length
05 141 ft / 43 m 8,683 ft / 2,647 m 42.98° 47.91° Asphalt 472 ft / 144 m 0 ft / 0 m
23 141 ft / 43 m 8,683 ft / 2,647 m 222.99° 227.92° Asphalt 466 ft / 142 m 0 ft / 0 m

LPPS

Details ICAO LPPS (PXO)
Name Porto Santo
Region Portugal
Timezone Atlantic/Madeira (UTC+1.0)
Stats Elevation 340 ft / 104 m (AMSL)
Location 33.073413° -16.349946°
Runways 1
Magnetic Variation 4.765° W

METAR

LPPS 221800Z 31014KT 9999 SCT015 18/10 Q1017

Decode

TAF

TAF LPPS 221700Z 2218/2324 33015KT 9999 SCT015 PROB30 TEMPO 2300/2315 32018G38KT SCT013 BKN030

Decode

Destination Runways

ID Width Length Bearing (true) Bearing (mag) Surface Threshold Offset Overrun Length
18 148 ft / 45 m 9,890 ft / 3,014 m 178.11° 182.87° Asphalt 0 ft / 0 m 0 ft / 0 m
36 148 ft / 45 m 9,890 ft / 3,014 m 358.12° 2.88° Asphalt 0 ft / 0 m 499 ft / 152 m

Popular Alternatives